When you browse on this site, cookies collect data to enhance your experience and personalize the content and advertising you see.
Visit our Privacy Policy to learn more. By continuing to use the site, you agree to this use of cookies and data.
  • In Netherlands
  • List of Countries
  • For 7 days
  • Water Temperature
  • Weather Map
  • Weather Widgets
  • user-avatar
    Login

    Hourly Weather São Paulo

    Today, 4 June, Thursday

    Time Temperature Precipitation Wind Pressure Humidity
    00:00 +18°C° 0 mm 2 mps 703 mmHg 89%
    01:00 +19°C° 0 mm 1 mps 702 mmHg 89%
    02:00 +19°C° 0 mm 1 mps 702 mmHg 89%
    03:00 +19°C° 0 mm 1 mps 702 mmHg 89%
    04:00 +19°C° 0 mm 1 mps 702 mmHg 89%
    05:00 +18°C° 0 mm 2 mps 702 mmHg 90%
    06:00 +17°C° 0 mm 2 mps 702 mmHg 90%
    07:00 +18°C° 0 mm 2 mps 703 mmHg 88%
    08:00 +18°C° 0 mm 2 mps 703 mmHg 87%
    09:00 +19°C° 0 mm 2 mps 704 mmHg 85%
    10:00 +20°C° 0 mm 2 mps 704 mmHg 79%
    11:00 +23°C° 0 mm 2 mps 704 mmHg 72%
    12:00 +24°C° 0 mm 2 mps 704 mmHg 66%
    13:00 +24°C° 0.2 mm 2 mps 703 mmHg 68%
    14:00 +22°C° 0.2 mm 3 mps 703 mmHg 71%
    15:00 +22°C° 0.2 mm 3 mps 702 mmHg 73%
    16:00 +21°C° 0 mm 3 mps 702 mmHg 78%
    17:00 +20°C° 0 mm 3 mps 702 mmHg 82%
    18:00 +19°C° 0 mm 3 mps 702 mmHg 86%
    19:00 +19°C° 0 mm 3 mps 703 mmHg 88%
    20:00 +19°C° 0 mm 2 mps 703 mmHg 89%
    21:00 +19°C° 0 mm 2 mps 703 mmHg 91%
    22:00 +19°C° 0 mm 2 mps 703 mmHg 91%
    23:00 +19°C° 0 mm 2 mps 703 mmHg 91%

    Tomorrow, 5 June, Friday

    Time Temperature Precipitation Wind Pressure Humidity
    00:00 +19°C° 0 mm 2 mps 703 mmHg 90%
    01:00 +19°C° 0 mm 2 mps 702 mmHg 90%
    02:00 +18°C° 0 mm 2 mps 702 mmHg 90%
    03:00 +18°C° 0 mm 2 mps 702 mmHg 89%
    04:00 +18°C° 0.4 mm 2 mps 702 mmHg 90%
    05:00 +18°C° 0.4 mm 2 mps 702 mmHg 91%
    06:00 +18°C° 0.4 mm 2 mps 702 mmHg 91%
    07:00 +19°C° 0.9 mm 1 mps 703 mmHg 91%
    08:00 +19°C° 0.9 mm 1 mps 703 mmHg 92%
    09:00 +19°C° 0.9 mm 1 mps 704 mmHg 92%
    10:00 +20°C° 0.4 mm 1 mps 704 mmHg 90%
    11:00 +20°C° 0.4 mm 1 mps 703 mmHg 88%
    12:00 +19°C° 0.4 mm 2 mps 703 mmHg 86%
    13:00 +19°C° 0.1 mm 2 mps 703 mmHg 85%
    14:00 +20°C° 0.1 mm 2 mps 702 mmHg 85%
    15:00 +21°C° 0.1 mm 1 mps 702 mmHg 84%
    16:00 +19°C° 0 mm 2 mps 702 mmHg 85%
    17:00 +19°C° 0 mm 2 mps 702 mmHg 86%
    18:00 +19°C° 0 mm 2 mps 702 mmHg 87%
    19:00 +19°C° 0 mm 2 mps 702 mmHg 88%
    20:00 +19°C° 0 mm 1 mps 702 mmHg 89%
    21:00 +19°C° 0 mm 1 mps 702 mmHg 89%
    22:00 +19°C° 0 mm 1 mps 702 mmHg 90%
    23:00 +19°C° 0 mm 1 mps 702 mmHg 91%

    Day after tomorrow, 6 June, Saturday

    Time Temperature Precipitation Wind Pressure Humidity
    00:00 +19°C° 0 mm 1 mps 702 mmHg 92%
    01:00 +19°C° 0 mm 1 mps 701 mmHg 91%
    02:00 +19°C° 0 mm 1 mps 701 mmHg 90%
    03:00 +19°C° 0 mm 1 mps 701 mmHg 88%
    04:00 +19°C° 0 mm 1 mps 701 mmHg 88%
    05:00 +19°C° 0 mm 1 mps 701 mmHg 88%
    06:00 +18°C° 0 mm 2 mps 701 mmHg 88%
    07:00 +19°C° 0 mm 2 mps 701 mmHg 85%
    08:00 +20°C° 0 mm 2 mps 702 mmHg 82%
    09:00 +20°C° 0 mm 3 mps 702 mmHg 79%
    10:00 +22°C° 0 mm 3 mps 702 mmHg 71%
    11:00 +25°C° 0 mm 3 mps 702 mmHg 63%
    12:00 +26°C° 0 mm 4 mps 702 mmHg 55%
    13:00 +26°C° 0 mm 4 mps 702 mmHg 55%
    14:00 +26°C° 0 mm 3 mps 702 mmHg 55%
    15:00 +26°C° 0 mm 3 mps 701 mmHg 54%
    16:00 +25°C° 0 mm 3 mps 701 mmHg 59%
    17:00 +24°C° 0 mm 2 mps 701 mmHg 64%
    18:00 +23°C° 0 mm 2 mps 701 mmHg 68%
    19:00 +23°C° 0 mm 2 mps 701 mmHg 70%
    20:00 +21°C° 0 mm 2 mps 701 mmHg 72%
    21:00 +21°C° 0 mm 2 mps 701 mmHg 74%
    22:00 +21°C° 0 mm 2 mps 701 mmHg 75%
    23:00 +20°C° 0 mm 2 mps 701 mmHg 77%

    7 June, Sunday

    Time Temperature Precipitation Wind Pressure Humidity
    00:00 +20°C° 0 mm 2 mps 701 mmHg 78%
    01:00 +20°C° 0.2 mm 2 mps 701 mmHg 78%
    02:00 +20°C° 0.2 mm 2 mps 701 mmHg 78%
    03:00 +20°C° 0.2 mm 2 mps 701 mmHg 79%
    04:00 +19°C° 0.1 mm 2 mps 701 mmHg 79%
    05:00 +19°C° 0.1 mm 2 mps 701 mmHg 79%
    06:00 +19°C° 0.1 mm 2 mps 701 mmHg 79%
    07:00 +20°C° 0.1 mm 2 mps 702 mmHg 76%
    08:00 +21°C° 0.1 mm 2 mps 702 mmHg 72%
    09:00 +23°C° 0.1 mm 2 mps 703 mmHg 69%
    10:00 +24°C° 0.1 mm 3 mps 703 mmHg 65%
    11:00 +25°C° 0.1 mm 3 mps 703 mmHg 62%
    12:00 +26°C° 0.1 mm 3 mps 703 mmHg 59%
    13:00 +27°C° 0.4 mm 3 mps 702 mmHg 59%
    14:00 +27°C° 0.4 mm 3 mps 702 mmHg 58%
    15:00 +27°C° 0.4 mm 2 mps 702 mmHg 58%
    16:00 +26°C° 0.3 mm 2 mps 702 mmHg 62%
    17:00 +25°C° 0.3 mm 2 mps 702 mmHg 65%
    18:00 +24°C° 0.3 mm 1 mps 702 mmHg 69%
    19:00 +23°C° 0 mm 1 mps 702 mmHg 71%
    20:00 +23°C° 0 mm 1 mps 702 mmHg 73%
    21:00 +22°C° 0 mm 1 mps 702 mmHg 75%
    22:00 +22°C° 0 mm 1 mps 702 mmHg 77%
    23:00 +19°C° 0 mm 0 mps 702 mmHg 78%

    8 June, Monday

    Time Temperature Precipitation Wind Pressure Humidity
    00:00 +19°C° 0 mm 0 mps 702 mmHg 79%
    01:00 +19°C° 0 mm 0 mps 701 mmHg 80%
    02:00 +19°C° 0 mm 0 mps 701 mmHg 81%
    03:00 +18°C° 0 mm 0 mps 701 mmHg 81%
    04:00 +18°C° 0 mm 0 mps 701 mmHg 82%
    05:00 +18°C° 0 mm 0 mps 701 mmHg 83%
    06:00 +18°C° 0 mm 0 mps 701 mmHg 83%
    07:00 +19°C° 0 mm 0 mps 702 mmHg 79%
    08:00 +20°C° 0 mm 0 mps 702 mmHg 75%
    09:00 +21°C° 0 mm 0 mps 703 mmHg 71%
    10:00 +23°C° 0 mm 0 mps 703 mmHg 64%
    11:00 +24°C° 0 mm 0 mps 703 mmHg 57%
    12:00 +26°C° 0 mm 0 mps 703 mmHg 50%
    13:00 +27°C° 0 mm 0 mps 702 mmHg 47%
    14:00 +29°C° 0 mm 1 mps 702 mmHg 45%
    15:00 +29°C° 0 mm 1 mps 701 mmHg 43%
    16:00 +28°C° 0 mm 1 mps 701 mmHg 51%
    17:00 +26°C° 0 mm 1 mps 701 mmHg 59%
    18:00 +25°C° 0 mm 1 mps 700 mmHg 67%
    19:00 +24°C° 0.1 mm 1 mps 701 mmHg 69%
    20:00 +24°C° 0.1 mm 1 mps 701 mmHg 71%
    21:00 +21°C° 0.1 mm 0 mps 701 mmHg 73%
    22:00 +23°C° 0.1 mm 1 mps 701 mmHg 75%
    23:00 +22°C° 0.1 mm 1 mps 700 mmHg 76%

    9 June, Tuesday

    Time Temperature Precipitation Wind Pressure Humidity
    00:00 +22°C° 0.1 mm 1 mps 700 mmHg 77%
    01:00 +22°C° 0 mm 1 mps 700 mmHg 78%
    02:00 +22°C° 0 mm 1 mps 700 mmHg 79%
    03:00 +21°C° 0 mm 1 mps 699 mmHg 80%
    04:00 +21°C° 0 mm 1 mps 699 mmHg 81%
    05:00 +21°C° 0 mm 1 mps 699 mmHg 81%
    06:00 +20°C° 0 mm 1 mps 699 mmHg 82%
    07:00 +22°C° 0 mm 1 mps 700 mmHg 78%
    08:00 +23°C° 0 mm 1 mps 700 mmHg 74%
    09:00 +24°C° 0 mm 1 mps 701 mmHg 70%
    10:00 +25°C° 0 mm 2 mps 701 mmHg 63%
    11:00 +27°C° 0 mm 2 mps 701 mmHg 57%
    12:00 +28°C° 0 mm 3 mps 701 mmHg 50%
    13:00 +28°C° 0 mm 3 mps 700 mmHg 50%
    14:00 +28°C° 0 mm 3 mps 700 mmHg 50%
    15:00 +29°C° 0 mm 3 mps 699 mmHg 50%
    16:00 +27°C° 0 mm 3 mps 699 mmHg 55%
    17:00 +26°C° 0 mm 2 mps 699 mmHg 60%
    18:00 +25°C° 0 mm 2 mps 699 mmHg 65%
    19:00 +24°C° 0.1 mm 2 mps 699 mmHg 68%
    20:00 +24°C° 0.1 mm 2 mps 699 mmHg 70%
    21:00 +23°C° 0.1 mm 1 mps 699 mmHg 73%
    22:00 +23°C° 0 mm 2 mps 699 mmHg 74%
    23:00 +23°C° 0 mm 2 mps 698 mmHg 76%
    Show more